NOZ326 ENGM-EGKK

Flight info

Callsign NOZ326
Flight time 1h 57m
Altitude 38000
Route VIPPA DCT ELKOP DCT AMSEV DCT UPGAS DCT TIPAN DCT WECOW DCT BINBO DCT AKOKO N866 BUKUT P7 BARMI
Aircraft B38M/M-SDE1FGHILORVWXY/HB1

Departure

Time 2026-05-03 20:29
Airport Oslo-Gardermoen International Airport (ENGM)

Arrival

Time 2026-05-03 22:27
Airport London Gatwick Airport (EGKK)
Time Latitude Longitude Altitude Speed Heading
2026-05-03 20:15 60.19631 11.09952 684 ft 0 kts 106°
2026-05-03 20:16 60.19634 11.09933 679 ft 3 kts 107°
2026-05-03 20:16 60.19641 11.09887 679 ft 3 kts 107°
2026-05-03 20:17 60.19648 11.09842 680 ft 3 kts 106°
2026-05-03 20:17 60.19654 11.09796 681 ft 3 kts 99°
2026-05-03 20:17 60.19654 11.09752 684 ft 3 kts 71°
2026-05-03 20:17 60.19646 11.09730 680 ft 0 kts 17°
2026-05-03 20:21 60.19653 11.09735 682 ft 3 kts 17°
2026-05-03 20:21 60.19688 11.09755 684 ft 7 kts 17°
2026-05-03 20:21 60.19740 11.09786 683 ft 9 kts 16°
2026-05-03 20:21 60.19809 11.09825 684 ft 11 kts 15°
2026-05-03 20:22 60.19891 11.09873 684 ft 13 kts 17°
2026-05-03 20:22 60.19988 11.09932 685 ft 15 kts 17°
2026-05-03 20:22 60.20060 11.09917 685 ft 10 kts 298°
2026-05-03 20:22 60.20083 11.09759 686 ft 13 kts 286°
2026-05-03 20:23 60.20112 11.09563 682 ft 16 kts 286°
2026-05-03 20:23 60.20145 11.09330 681 ft 19 kts 285°
2026-05-03 20:23 60.20180 11.09080 683 ft 12 kts 286°
2026-05-03 20:23 60.20227 11.08934 682 ft 14 kts 348°
2026-05-03 20:24 60.20329 11.08995 678 ft 17 kts 15°
2026-05-03 20:24 60.20450 11.09064 678 ft 19 kts 16°
2026-05-03 20:24 60.20582 11.09141 682 ft 21 kts 15°
2026-05-03 20:24 60.20722 11.09221 684 ft 21 kts 15°
2026-05-03 20:25 60.20868 11.09304 687 ft 22 kts 16°
2026-05-03 20:25 60.21021 11.09394 682 ft 24 kts 17°
2026-05-03 20:25 60.21190 11.09491 683 ft 26 kts 16°
2026-05-03 20:25 60.21360 11.09589 684 ft 18 kts 15°
2026-05-03 20:26 60.21450 11.09641 686 ft 13 kts 16°
2026-05-03 20:26 60.21531 11.09599 684 ft 11 kts 308°
2026-05-03 20:26 60.21555 11.09455 681 ft 10 kts 286°
2026-05-03 20:26 60.21559 11.09426 684 ft 0 kts 284°
2026-05-03 20:27 60.21560 11.09422 684 ft 2 kts 284°
2026-05-03 20:28 60.21577 11.09291 685 ft 17 kts 284°
2026-05-03 20:28 60.21545 11.09134 685 ft 5 kts 200°
2026-05-03 20:28 60.21538 11.09129 686 ft 0 kts 197°
2026-05-03 20:29 60.21455 11.09079 683 ft 44 kts 196°
2026-05-03 20:29 60.20925 11.08775 681 ft 111 kts 196°
2026-05-03 20:29 60.20008 11.08250 724 ft 157 kts 195°
2026-05-03 20:29 60.18929 11.07601 1311 ft 163 kts 197°
2026-05-03 20:30 60.17838 11.06894 2111 ft 161 kts 202°
2026-05-03 20:30 60.16860 11.05852 2805 ft 168 kts 214°
2026-05-03 20:30 60.15997 11.03966 3058 ft 198 kts 238°
2026-05-03 20:30 60.15366 11.01314 3469 ft 223 kts 244°
2026-05-03 20:31 60.14747 10.98376 4119 ft 231 kts 245°
2026-05-03 20:31 60.14089 10.95320 4742 ft 246 kts 245°
2026-05-03 20:31 60.13376 10.92129 5406 ft 254 kts 246°
2026-05-03 20:31 60.12650 10.88919 6236 ft 257 kts 246°
2026-05-03 20:32 60.11900 10.85633 7056 ft 259 kts 246°
2026-05-03 20:32 60.11141 10.82331 7865 ft 261 kts 246°
2026-05-03 20:32 60.10281 10.79107 8687 ft 264 kts 233°
2026-05-03 20:32 60.08843 10.76759 9503 ft 272 kts 210°
2026-05-03 20:33 60.07011 10.75589 10016 ft 290 kts 194°
2026-05-03 20:33 60.04989 10.74665 10379 ft 305 kts 198°
2026-05-03 20:33 60.02880 10.73612 10861 ft 315 kts 198°
2026-05-03 20:33 60.00746 10.72564 11632 ft 316 kts 197°
2026-05-03 20:34 59.98593 10.71517 12411 ft 319 kts 197°
2026-05-03 20:34 59.96447 10.70481 13240 ft 321 kts 198°
2026-05-03 20:34 59.94268 10.69431 14013 ft 324 kts 198°
2026-05-03 20:34 59.92072 10.68377 14776 ft 326 kts 198°
2026-05-03 20:35 59.89847 10.67309 15479 ft 332 kts 199°
2026-05-03 20:35 59.87566 10.66209 16026 ft 341 kts 199°
2026-05-03 20:35 59.85239 10.65092 16768 ft 344 kts 199°
2026-05-03 20:35 59.82926 10.63987 17498 ft 348 kts 199°
2026-05-03 20:36 59.80563 10.62860 18183 ft 351 kts 199°
2026-05-03 20:36 59.78177 10.61725 18798 ft 354 kts 199°
2026-05-03 20:36 59.75776 10.60585 19405 ft 356 kts 199°
2026-05-03 20:36 59.73354 10.59436 19987 ft 359 kts 199°
2026-05-03 20:37 59.70909 10.58277 20548 ft 362 kts 199°
2026-05-03 20:37 59.68450 10.57114 21145 ft 364 kts 199°
2026-05-03 20:37 59.65971 10.55943 21722 ft 367 kts 199°
2026-05-03 20:37 59.63478 10.54767 22306 ft 369 kts 199°
2026-05-03 20:38 59.60968 10.53587 22891 ft 372 kts 199°
2026-05-03 20:38 59.58476 10.52416 23454 ft 375 kts 199°
2026-05-03 20:38 59.55933 10.51220 23956 ft 376 kts 199°
2026-05-03 20:38 59.53390 10.50029 24511 ft 376 kts 199°
2026-05-03 20:39 59.50830 10.48831 25053 ft 377 kts 200°
2026-05-03 20:39 59.48274 10.47638 25590 ft 378 kts 200°
2026-05-03 20:39 59.45704 10.46439 26081 ft 379 kts 200°
2026-05-03 20:39 59.43138 10.45246 26646 ft 379 kts 200°
2026-05-03 20:40 59.40568 10.44052 27131 ft 380 kts 200°
2026-05-03 20:40 59.38091 10.42553 27578 ft 374 kts 210°
2026-05-03 20:40 59.35770 10.40236 27974 ft 375 kts 212°
2026-05-03 20:40 59.33435 10.37899 28426 ft 377 kts 212°
2026-05-03 20:41 59.31096 10.35557 28898 ft 379 kts 212°
2026-05-03 20:41 59.28743 10.33206 29494 ft 378 kts 212°
2026-05-03 20:41 59.26398 10.30864 29902 ft 378 kts 212°
2026-05-03 20:41 59.24046 10.28520 30137 ft 380 kts 212°
2026-05-03 20:42 59.21707 10.26192 30395 ft 381 kts 212°
2026-05-03 20:42 59.19330 10.23830 30595 ft 383 kts 211°
2026-05-03 20:42 59.16946 10.21464 30788 ft 386 kts 211°
2026-05-03 20:42 59.14535 10.19075 31090 ft 386 kts 211°
2026-05-03 20:43 59.12172 10.16737 31426 ft 385 kts 211°
2026-05-03 20:43 59.09774 10.14368 31757 ft 385 kts 211°
2026-05-03 20:43 59.07386 10.12013 32084 ft 384 kts 211°
2026-05-03 20:43 59.05001 10.09664 32419 ft 383 kts 211°
2026-05-03 20:44 59.02621 10.07324 32748 ft 382 kts 211°
2026-05-03 20:44 59.00272 10.05018 33069 ft 382 kts 212°
2026-05-03 20:44 58.97908 10.02700 33382 ft 381 kts 212°
2026-05-03 20:44 58.95534 10.00378 33693 ft 380 kts 212°
2026-05-03 20:45 58.93171 9.98068 33930 ft 380 kts 211°
2026-05-03 20:45 58.90809 9.95764 34109 ft 381 kts 211°
2026-05-03 20:45 58.88431 9.93448 34258 ft 383 kts 211°
2026-05-03 20:45 58.86039 9.91122 34428 ft 385 kts 211°
2026-05-03 20:46 58.83667 9.88819 34586 ft 386 kts 211°
2026-05-03 20:46 58.81261 9.86487 34749 ft 388 kts 211°
2026-05-03 20:46 58.78836 9.84139 34903 ft 389 kts 211°
2026-05-03 20:46 58.76404 9.81789 35065 ft 391 kts 211°
2026-05-03 20:47 58.73968 9.79438 35211 ft 392 kts 211°
2026-05-03 20:47 58.71514 9.77074 35353 ft 394 kts 211°
2026-05-03 20:47 58.69080 9.74733 35508 ft 395 kts 211°
2026-05-03 20:47 58.66611 9.72362 35644 ft 397 kts 211°
2026-05-03 20:48 58.64137 9.69991 35772 ft 398 kts 210°
2026-05-03 20:48 58.61649 9.67609 35927 ft 399 kts 210°
2026-05-03 20:48 58.59193 9.65261 36069 ft 400 kts 210°
2026-05-03 20:48 58.56693 9.62876 36207 ft 401 kts 210°
2026-05-03 20:49 58.54190 9.60491 36337 ft 403 kts 210°
2026-05-03 20:49 58.51675 9.58100 36494 ft 404 kts 210°
2026-05-03 20:49 58.49146 9.55698 36736 ft 406 kts 210°
2026-05-03 20:49 58.46603 9.53288 36932 ft 408 kts 210°
2026-05-03 20:50 58.44059 9.50880 37131 ft 410 kts 210°
2026-05-03 20:50 58.41487 9.48449 37324 ft 411 kts 210°
2026-05-03 20:50 58.38947 9.46053 37520 ft 413 kts 210°
2026-05-03 20:50 58.36365 9.43621 37703 ft 415 kts 210°
2026-05-03 20:51 58.33759 9.41171 37825 ft 417 kts 210°
2026-05-03 20:51 58.28555 9.36289 37826 ft 416 kts 210°
2026-05-03 20:52 58.23379 9.31451 37827 ft 416 kts 210°
2026-05-03 20:52 58.18162 9.26590 37851 ft 417 kts 210°
2026-05-03 20:53 58.12972 9.21770 37805 ft 418 kts 210°
2026-05-03 20:53 58.07737 9.16923 37830 ft 418 kts 209°
2026-05-03 20:54 58.02497 9.12089 37837 ft 418 kts 209°
2026-05-03 20:54 57.94672 9.04898 37827 ft 418 kts 209°
2026-05-03 20:55 57.89428 9.00098 37844 ft 418 kts 209°
2026-05-03 20:55 57.84214 8.95343 37839 ft 419 kts 209°
2026-05-03 20:56 57.78960 8.90565 37840 ft 419 kts 209°
2026-05-03 20:56 57.73740 8.85834 37840 ft 419 kts 209°
2026-05-03 20:57 57.68489 8.81032 37842 ft 417 kts 213°
2026-05-03 20:57 57.66215 8.77763 37855 ft 410 kts 226°
2026-05-03 20:57 57.64126 8.74101 37813 ft 414 kts 224°
2026-05-03 20:58 57.59886 8.66938 37852 ft 414 kts 224°
2026-05-03 20:58 57.55613 8.59698 37849 ft 414 kts 224°
2026-05-03 20:59 57.51343 8.52482 37856 ft 414 kts 224°
2026-05-03 20:59 57.47101 8.45337 37856 ft 414 kts 224°
2026-05-03 21:00 57.44238 8.40528 37872 ft 414 kts 224°
2026-05-03 21:00 57.38537 8.30983 37864 ft 416 kts 224°
2026-05-03 21:01 57.34222 8.23786 37858 ft 416 kts 223°
2026-05-03 21:01 57.29908 8.16614 37862 ft 416 kts 223°
2026-05-03 21:02 57.25613 8.09498 37863 ft 416 kts 223°
2026-05-03 21:02 57.21289 8.02357 37873 ft 416 kts 223°
2026-05-03 21:03 57.16992 7.95284 37869 ft 416 kts 223°
2026-05-03 21:03 57.12658 7.88173 37855 ft 416 kts 223°
2026-05-03 21:04 57.08314 7.81068 37878 ft 417 kts 223°
2026-05-03 21:04 57.03999 7.74035 37878 ft 417 kts 223°
2026-05-03 21:05 56.99655 7.66978 37884 ft 417 kts 223°
2026-05-03 21:05 56.96025 7.61096 37887 ft 419 kts 223°
2026-05-03 21:06 56.91640 7.54015 37885 ft 419 kts 223°
2026-05-03 21:06 56.87280 7.46996 37877 ft 419 kts 223°
2026-05-03 21:07 56.82885 7.39942 37891 ft 420 kts 223°
2026-05-03 21:07 56.78486 7.32907 37892 ft 420 kts 223°
2026-05-03 21:08 56.74114 7.25936 37892 ft 420 kts 222°
2026-05-03 21:08 56.69697 7.18918 37898 ft 420 kts 222°
2026-05-03 21:09 56.65290 7.11936 37897 ft 420 kts 222°
2026-05-03 21:09 56.60906 7.05015 37898 ft 419 kts 222°
2026-05-03 21:10 56.56491 6.98065 37905 ft 419 kts 222°
2026-05-03 21:10 56.52062 6.91116 37910 ft 422 kts 222°
2026-05-03 21:11 56.47607 6.84151 37909 ft 423 kts 222°
2026-05-03 21:11 56.43182 6.77252 37911 ft 422 kts 222°
2026-05-03 21:12 56.38722 6.70323 37897 ft 422 kts 222°
2026-05-03 21:12 56.34252 6.63399 37917 ft 423 kts 222°
2026-05-03 21:13 56.29805 6.56534 37917 ft 423 kts 222°
2026-05-03 21:13 56.25339 6.49661 37917 ft 422 kts 222°
2026-05-03 21:14 56.20859 6.42787 37917 ft 423 kts 221°
2026-05-03 21:14 56.16373 6.35928 37919 ft 423 kts 221°
2026-05-03 21:15 56.11913 6.29130 37917 ft 422 kts 221°
2026-05-03 21:15 56.07429 6.22316 37923 ft 422 kts 221°
2026-05-03 21:16 56.02937 6.15512 37920 ft 422 kts 221°
2026-05-03 21:16 55.98474 6.08772 37922 ft 422 kts 221°
2026-05-03 21:17 55.94729 6.03134 37921 ft 422 kts 221°
2026-05-03 21:17 55.89465 5.95233 37922 ft 423 kts 221°
2026-05-03 21:18 55.84979 5.88523 37921 ft 423 kts 221°
2026-05-03 21:18 55.80473 5.81804 37927 ft 423 kts 221°
2026-05-03 21:19 55.75956 5.75090 37925 ft 423 kts 221°
2026-05-03 21:19 55.71465 5.68434 37925 ft 423 kts 221°
2026-05-03 21:20 55.66937 5.61746 37927 ft 423 kts 221°
2026-05-03 21:20 55.62408 5.55076 37932 ft 424 kts 221°
2026-05-03 21:21 55.57883 5.48432 37932 ft 424 kts 221°
2026-05-03 21:21 55.53330 5.41770 37930 ft 425 kts 221°
2026-05-03 21:22 55.48769 5.35115 37930 ft 424 kts 221°
2026-05-03 21:22 55.44237 5.28517 37927 ft 424 kts 220°
2026-05-03 21:23 55.39671 5.21892 37919 ft 424 kts 220°
2026-05-03 21:23 55.35141 5.15336 37927 ft 424 kts 220°
2026-05-03 21:24 55.30579 5.08756 37931 ft 424 kts 220°
2026-05-03 21:24 55.26008 5.02181 37924 ft 424 kts 220°
2026-05-03 21:25 55.21027 4.96785 37934 ft 426 kts 211°
2026-05-03 21:25 55.15816 4.91830 37915 ft 426 kts 210°
2026-05-03 21:26 55.10601 4.86918 37925 ft 425 kts 210°
2026-05-03 21:26 55.05393 4.82031 37928 ft 425 kts 210°
2026-05-03 21:27 55.00211 4.77183 37911 ft 425 kts 210°
2026-05-03 21:27 54.94992 4.72315 37906 ft 425 kts 210°
2026-05-03 21:28 54.89775 4.67463 37893 ft 424 kts 210°
2026-05-03 21:28 54.84567 4.62634 37898 ft 424 kts 210°
2026-05-03 21:29 54.79360 4.57820 37904 ft 424 kts 210°
2026-05-03 21:29 54.74152 4.53018 37907 ft 424 kts 210°
2026-05-03 21:30 54.68957 4.48243 37905 ft 424 kts 210°
2026-05-03 21:30 54.63735 4.43457 37916 ft 424 kts 210°
2026-05-03 21:31 54.58554 4.38722 37901 ft 424 kts 210°
2026-05-03 21:31 54.53329 4.33963 37898 ft 424 kts 209°
2026-05-03 21:32 54.48098 4.29211 37899 ft 424 kts 209°
2026-05-03 21:32 54.42890 4.24493 37912 ft 425 kts 209°
2026-05-03 21:33 54.37633 4.19746 37920 ft 427 kts 209°
2026-05-03 21:33 54.32394 4.15027 37910 ft 427 kts 209°
2026-05-03 21:34 54.27120 4.10291 37914 ft 427 kts 209°
2026-05-03 21:34 54.21873 4.05594 37910 ft 427 kts 209°
2026-05-03 21:35 54.16604 4.00890 37901 ft 427 kts 209°
2026-05-03 21:35 54.11356 3.96218 37912 ft 428 kts 209°
2026-05-03 21:36 54.06073 3.91529 37917 ft 427 kts 209°
2026-05-03 21:36 54.00780 3.86842 37917 ft 427 kts 209°
2026-05-03 21:37 53.95531 3.82212 37918 ft 428 kts 209°
2026-05-03 21:37 53.90237 3.77554 37909 ft 426 kts 208°
2026-05-03 21:38 53.84969 3.72931 37914 ft 426 kts 208°
2026-05-03 21:38 53.79738 3.68355 37913 ft 426 kts 208°
2026-05-03 21:39 53.74463 3.63753 37939 ft 427 kts 208°
2026-05-03 21:39 53.69158 3.59138 37921 ft 428 kts 208°
2026-05-03 21:40 53.63857 3.54539 37924 ft 428 kts 208°
2026-05-03 21:40 53.58591 3.49984 37924 ft 428 kts 208°
2026-05-03 21:41 53.53279 3.45402 37927 ft 428 kts 208°
2026-05-03 21:41 53.48000 3.40861 37926 ft 428 kts 208°
2026-05-03 21:42 53.42760 3.36366 37936 ft 416 kts 208°
2026-05-03 21:42 53.37613 3.31964 37931 ft 415 kts 208°
2026-05-03 21:43 53.32493 3.27597 37913 ft 413 kts 208°
2026-05-03 21:43 53.27420 3.23281 37914 ft 404 kts 208°
2026-05-03 21:44 53.22435 3.19051 37904 ft 403 kts 208°
2026-05-03 21:44 53.17423 3.14810 37907 ft 404 kts 208°
2026-05-03 21:45 53.12404 3.10574 37909 ft 404 kts 208°
2026-05-03 21:45 53.07380 3.06345 37908 ft 404 kts 208°
2026-05-03 21:46 53.02390 3.02155 37919 ft 404 kts 208°
2026-05-03 21:46 52.97386 2.97966 37233 ft 402 kts 208°
2026-05-03 21:47 52.94893 2.95882 36635 ft 397 kts 208°
2026-05-03 21:47 52.92411 2.93811 36046 ft 398 kts 207°
2026-05-03 21:47 52.89937 2.91749 35378 ft 396 kts 207°
2026-05-03 21:47 52.87503 2.89723 34701 ft 397 kts 207°
2026-05-03 21:48 52.85012 2.87652 33986 ft 400 kts 207°
2026-05-03 21:48 52.82515 2.85577 33241 ft 401 kts 207°
2026-05-03 21:48 52.80023 2.83510 32660 ft 397 kts 207°
2026-05-03 21:48 52.77594 2.81497 32182 ft 392 kts 207°
2026-05-03 21:49 52.75168 2.79491 31683 ft 388 kts 207°
2026-05-03 21:49 52.72752 2.77495 31084 ft 386 kts 207°
2026-05-03 21:49 52.70361 2.75522 30563 ft 380 kts 207°
2026-05-03 21:49 52.68019 2.73592 30093 ft 371 kts 207°
2026-05-03 21:50 52.65764 2.71736 29567 ft 362 kts 207°
2026-05-03 21:50 52.63529 2.69899 29052 ft 353 kts 208°
2026-05-03 21:50 52.61355 2.68114 28594 ft 345 kts 208°
2026-05-03 21:50 52.59208 2.66352 28148 ft 343 kts 208°
2026-05-03 21:51 52.57072 2.64602 27707 ft 341 kts 208°
2026-05-03 21:51 52.54970 2.62881 27270 ft 340 kts 208°
2026-05-03 21:51 52.52853 2.61150 26834 ft 338 kts 208°
2026-05-03 21:51 52.50744 2.59428 26399 ft 337 kts 208°
2026-05-03 21:52 52.48653 2.57721 25978 ft 335 kts 207°
2026-05-03 21:52 52.46563 2.56018 25897 ft 335 kts 207°
2026-05-03 21:52 52.45174 2.54887 25913 ft 336 kts 207°
2026-05-03 21:52 52.42387 2.52620 25911 ft 337 kts 207°
2026-05-03 21:53 52.40278 2.50907 25913 ft 337 kts 207°
2026-05-03 21:53 52.38879 2.49772 25911 ft 337 kts 207°
2026-05-03 21:53 52.36777 2.48067 25910 ft 337 kts 207°
2026-05-03 21:53 52.34673 2.46362 25924 ft 336 kts 207°
2026-05-03 21:54 52.32573 2.44662 25909 ft 336 kts 207°
2026-05-03 21:54 52.30492 2.42980 25908 ft 336 kts 207°
2026-05-03 21:54 52.28393 2.41285 25908 ft 336 kts 207°
2026-05-03 21:54 52.26293 2.39591 25910 ft 336 kts 207°
2026-05-03 21:55 52.24186 2.37893 25907 ft 337 kts 207°
2026-05-03 21:55 52.22086 2.36203 25910 ft 337 kts 207°
2026-05-03 21:55 52.20002 2.34527 25914 ft 337 kts 207°
2026-05-03 21:55 52.17895 2.32835 25911 ft 337 kts 207°
2026-05-03 21:56 52.15783 2.31140 25911 ft 337 kts 207°
2026-05-03 21:56 52.13705 2.29474 25910 ft 337 kts 207°
2026-05-03 21:56 52.11600 2.27788 25912 ft 337 kts 207°
2026-05-03 21:56 52.09471 2.26085 25910 ft 337 kts 207°
2026-05-03 21:57 52.07390 2.24423 25909 ft 337 kts 207°
2026-05-03 21:57 52.05278 2.22738 25912 ft 337 kts 207°
2026-05-03 21:57 52.03156 2.21046 25909 ft 337 kts 207°
2026-05-03 21:57 52.01079 2.19391 25705 ft 336 kts 206°
2026-05-03 21:58 51.98981 2.17722 25366 ft 334 kts 206°
2026-05-03 21:58 51.96897 2.16065 25027 ft 333 kts 206°
2026-05-03 21:58 51.94814 2.14411 24687 ft 332 kts 207°
2026-05-03 21:58 51.92732 2.12760 24357 ft 332 kts 207°
2026-05-03 21:59 51.90677 2.11131 24024 ft 331 kts 207°
2026-05-03 21:59 51.88604 2.09491 23696 ft 330 kts 207°
2026-05-03 21:59 51.86535 2.07854 23343 ft 330 kts 207°
2026-05-03 21:59 51.84500 2.06248 22975 ft 328 kts 207°
2026-05-03 22:00 51.82422 2.04608 22611 ft 327 kts 207°
2026-05-03 22:00 51.80404 2.03017 22284 ft 325 kts 207°
2026-05-03 22:00 51.78374 2.01418 21941 ft 323 kts 207°
2026-05-03 22:00 51.76362 1.99836 21623 ft 321 kts 207°
2026-05-03 22:01 51.74358 1.98260 21309 ft 319 kts 207°
2026-05-03 22:01 51.72360 1.96692 20992 ft 318 kts 207°
2026-05-03 22:01 51.70374 1.95134 20709 ft 317 kts 207°
2026-05-03 22:01 51.68394 1.93582 20431 ft 316 kts 207°
2026-05-03 22:02 51.66437 1.92027 20153 ft 316 kts 210°
2026-05-03 22:02 51.64735 1.89771 19869 ft 314 kts 228°
2026-05-03 22:02 51.63283 1.87187 19560 ft 314 kts 227°
2026-05-03 22:02 51.61816 1.84582 19235 ft 313 kts 227°
2026-05-03 22:03 51.60365 1.81978 18915 ft 312 kts 227°
2026-05-03 22:03 51.58923 1.79372 18603 ft 311 kts 228°
2026-05-03 22:03 51.57485 1.76765 18283 ft 309 kts 228°
2026-05-03 22:03 51.56062 1.74182 17941 ft 308 kts 228°
2026-05-03 22:04 51.54661 1.71638 17584 ft 307 kts 228°
2026-05-03 22:04 51.53248 1.69074 17232 ft 306 kts 228°
2026-05-03 22:04 51.51834 1.66511 16880 ft 305 kts 228°
2026-05-03 22:04 51.50428 1.63964 16538 ft 304 kts 228°
2026-05-03 22:05 51.49109 1.61368 16197 ft 303 kts 239°
2026-05-03 22:05 51.48291 1.58264 15863 ft 302 kts 248°
2026-05-03 22:05 51.47538 1.55107 15502 ft 302 kts 248°
2026-05-03 22:05 51.46796 1.51957 15149 ft 301 kts 248°
2026-05-03 22:06 51.46060 1.48800 14786 ft 301 kts 248°
2026-05-03 22:06 51.45333 1.45668 14441 ft 299 kts 248°
2026-05-03 22:06 51.44617 1.42576 14110 ft 298 kts 248°
2026-05-03 22:06 51.43891 1.39503 13946 ft 291 kts 244°
2026-05-03 22:07 51.42718 1.36908 13917 ft 288 kts 220°
2026-05-03 22:07 51.41134 1.34915 13930 ft 289 kts 218°
2026-05-03 22:07 51.39539 1.32947 13919 ft 289 kts 217°
2026-05-03 22:07 51.37928 1.30992 13923 ft 290 kts 217°
2026-05-03 22:08 51.36334 1.29079 13923 ft 290 kts 217°
2026-05-03 22:08 51.34717 1.27153 13922 ft 290 kts 216°
2026-05-03 22:08 51.33095 1.25230 13924 ft 290 kts 216°
2026-05-03 22:08 51.31464 1.23302 13918 ft 291 kts 216°
2026-05-03 22:09 51.29836 1.21380 13925 ft 291 kts 216°
2026-05-03 22:09 51.28222 1.19477 13924 ft 291 kts 216°
2026-05-03 22:09 51.26585 1.17549 13926 ft 291 kts 216°
2026-05-03 22:10 51.23316 1.13706 13927 ft 291 kts 216°
2026-05-03 22:10 51.21703 1.11812 13927 ft 291 kts 216°
2026-05-03 22:10 51.20066 1.09892 13929 ft 291 kts 216°
2026-05-03 22:10 51.18433 1.07977 13929 ft 291 kts 216°
2026-05-03 22:11 51.16799 1.06065 13932 ft 291 kts 216°
2026-05-03 22:11 51.15163 1.04150 13877 ft 292 kts 216°
2026-05-03 22:11 51.13523 1.02233 13630 ft 295 kts 216°
2026-05-03 22:11 51.11878 1.00313 13379 ft 291 kts 216°
2026-05-03 22:12 51.10249 0.98412 13127 ft 289 kts 216°
2026-05-03 22:12 51.08632 0.96526 12844 ft 287 kts 216°
2026-05-03 22:12 51.07021 0.94649 12603 ft 286 kts 216°
2026-05-03 22:12 51.05624 0.92418 12335 ft 287 kts 237°
2026-05-03 22:13 51.04727 0.89589 12105 ft 287 kts 243°
2026-05-03 22:13 51.03847 0.86729 11855 ft 287 kts 243°
2026-05-03 22:13 51.02980 0.83874 11625 ft 286 kts 243°
2026-05-03 22:13 51.02128 0.81051 11382 ft 286 kts 243°
2026-05-03 22:14 51.01273 0.78203 11115 ft 285 kts 243°
2026-05-03 22:14 51.00421 0.75366 10861 ft 284 kts 243°
2026-05-03 22:14 50.99571 0.72529 10610 ft 283 kts 244°
2026-05-03 22:14 50.98724 0.69708 10375 ft 282 kts 244°
2026-05-03 22:15 50.97880 0.66901 10143 ft 281 kts 244°
2026-05-03 22:15 50.97038 0.64101 9912 ft 280 kts 244°
2026-05-03 22:15 50.96207 0.61344 9667 ft 280 kts 244°
2026-05-03 22:15 50.95366 0.58556 9405 ft 279 kts 244°
2026-05-03 22:16 50.94532 0.55786 9150 ft 278 kts 245°
2026-05-03 22:16 50.94082 0.52861 8861 ft 272 kts 269°
2026-05-03 22:16 50.94508 0.50004 8589 ft 265 kts 297°
2026-05-03 22:16 50.95669 0.47813 8325 ft 258 kts 319°
2026-05-03 22:17 50.97076 0.46073 8058 ft 253 kts 321°
2026-05-03 22:17 50.98463 0.44410 8106 ft 250 kts 321°
2026-05-03 22:17 50.99853 0.42745 8036 ft 250 kts 321°
2026-05-03 22:17 51.01225 0.41099 7985 ft 249 kts 321°
2026-05-03 22:18 51.02614 0.39432 7994 ft 250 kts 321°
2026-05-03 22:18 51.04001 0.37767 7934 ft 250 kts 321°
2026-05-03 22:18 51.05388 0.36100 7638 ft 249 kts 321°
2026-05-03 22:18 51.06773 0.34433 7217 ft 249 kts 321°
2026-05-03 22:19 51.08152 0.32770 6789 ft 247 kts 321°
2026-05-03 22:19 51.09512 0.31119 6340 ft 245 kts 321°
2026-05-03 22:19 51.10868 0.29469 5849 ft 244 kts 321°
2026-05-03 22:19 51.12196 0.27842 5377 ft 242 kts 321°
2026-05-03 22:20 51.13526 0.26202 4964 ft 240 kts 321°
2026-05-03 22:20 51.14830 0.24584 4617 ft 235 kts 321°
2026-05-03 22:20 51.16110 0.22999 4251 ft 230 kts 321°
2026-05-03 22:20 51.17368 0.21442 3899 ft 227 kts 321°
2026-05-03 22:21 51.18585 0.19943 3591 ft 221 kts 321°
2026-05-03 22:21 51.19775 0.18480 3436 ft 209 kts 321°
2026-05-03 22:21 51.20794 0.16979 3281 ft 191 kts 301°
2026-05-03 22:21 51.21102 0.15013 3185 ft 183 kts 262°
2026-05-03 22:22 51.20606 0.13199 3155 ft 183 kts 234°
2026-05-03 22:22 51.19818 0.11588 3116 ft 184 kts 231°
2026-05-03 22:22 51.19121 0.09868 3041 ft 184 kts 244°
2026-05-03 22:22 51.18668 0.07965 2993 ft 184 kts 253°
2026-05-03 22:23 51.18342 0.06017 3000 ft 184 kts 255°
2026-05-03 22:23 51.18040 0.04022 2846 ft 185 kts 256°
2026-05-03 22:23 51.17757 0.02026 2640 ft 184 kts 257°
2026-05-03 22:23 51.17477 0.00036 2414 ft 182 kts 257°
2026-05-03 22:24 51.17216 -0.01829 2196 ft 163 kts 257°
2026-05-03 22:24 51.16976 -0.03550 1992 ft 157 kts 257°
2026-05-03 22:24 51.16744 -0.05213 1787 ft 155 kts 257°
2026-05-03 22:24 51.16513 -0.06875 1594 ft 150 kts 257°
2026-05-03 22:25 51.16291 -0.08461 1391 ft 143 kts 257°
2026-05-03 22:25 51.16079 -0.09987 1188 ft 140 kts 257°
2026-05-03 22:25 51.15861 -0.11500 974 ft 141 kts 256°
2026-05-03 22:25 51.15639 -0.13021 776 ft 139 kts 256°
2026-05-03 22:26 51.15437 -0.14525 579 ft 138 kts 256°
2026-05-03 22:26 51.15233 -0.16007 400 ft 135 kts 257°
2026-05-03 22:26 51.15028 -0.17471 241 ft 136 kts 256°
2026-05-03 22:26 51.14840 -0.18832 217 ft 108 kts 258°
2026-05-03 22:27 51.14709 -0.19797 214 ft 72 kts 259°
2026-05-03 22:27 51.14648 -0.20361 212 ft 43 kts 270°
2026-05-03 22:27 51.14686 -0.20648 216 ft 7 kts 287°
2026-05-03 22:27 51.14718 -0.20726 208 ft 10 kts 336°
2026-05-03 22:28 51.14772 -0.20703 209 ft 8 kts 28°
2026-05-03 22:28 51.14831 -0.20653 207 ft 11 kts 28°
2026-05-03 22:28 51.14880 -0.20555 212 ft 13 kts 76°
2026-05-03 22:28 51.14902 -0.20395 214 ft 16 kts 77°
2026-05-03 22:29 51.14928 -0.20204 217 ft 19 kts 77°
2026-05-03 22:29 51.14959 -0.19982 214 ft 22 kts 78°
2026-05-03 22:29 51.14993 -0.19742 210 ft 20 kts 78°
2026-05-03 22:29 51.15023 -0.19517 210 ft 22 kts 78°
2026-05-03 22:30 51.15056 -0.19289 212 ft 22 kts 77°
2026-05-03 22:30 51.15089 -0.19036 215 ft 22 kts 78°
2026-05-03 22:30 51.15117 -0.18833 217 ft 17 kts 77°
2026-05-03 22:30 51.15142 -0.18650 212 ft 18 kts 78°
2026-05-03 22:31 51.15171 -0.18441 209 ft 21 kts 78°
2026-05-03 22:31 51.15193 -0.18240 211 ft 15 kts 79°
2026-05-03 22:31 51.15216 -0.18064 215 ft 18 kts 78°
2026-05-03 22:31 51.15245 -0.17856 215 ft 21 kts 77°
2026-05-03 22:32 51.15277 -0.17624 211 ft 19 kts 78°
2026-05-03 22:32 51.15296 -0.17477 207 ft 13 kts 81°
2026-05-03 22:32 51.15309 -0.17386 216 ft 9 kts 57°
2026-05-03 22:32 51.15359 -0.17336 211 ft 10 kts 65°
2026-05-03 22:33 51.15384 -0.17217 207 ft 13 kts 74°
2026-05-03 22:33 51.15411 -0.17099 211 ft 11 kts 74°
2026-05-03 22:33 51.15423 -0.17026 213 ft 6 kts 67°
2026-05-03 22:33 51.15456 -0.17022 209 ft 6 kts 346°
2026-05-03 22:34 51.15472 -0.17028 207 ft 3 kts 347°
2026-05-03 22:34 51.15479 -0.17031 210 ft 0 kts 347°